Powrót do katalogu

TRAAC

AktywnyNawigacjaLEO
NORAD 205·PAYLOAD·🇺🇸 United States

Wystrzelony Nov 15, 1961 z Cape Canaveral Space Force Station

Loading…

Następne Przeloty (najbliższe 24 godziny)

TLE

ŚwieżeSource: Space-Track

Epoka: Sep 10, 2026, 22:59 UTC

1 00205U 61031B   26253.95818320  .00000056  00000-0  39928-4 0  9998
2 00205  32.4409  89.5560 0102383 262.8093  96.0878 13.62578438230775

Śledź TRAAC w czasie rzeczywistym z AllMySat

Download on the App Store